| time (UTC) | temp C | wind direction | speed KPH | gust KPH | rain 1hr cm | rain 24hr cm | rain mn cm | humidity % | barometer mb |
| 20260505041529 | 12 | 108 | 1.6 | 12.9 | 0.00 | 4.09 | 1.07 | 94 | 1009.8 |
| 20260505040036 | 12 | 53 | 0.0 | 3.2 | 0.00 | 4.09 | 1.07 | 94 | 1009.9 |
| 20260505034526 | 12 | 53 | 0.0 | 3.2 | 0.00 | 4.17 | 1.07 | 94 | 1009.8 |
| 20260505033031 | 12 | 53 | 0.0 | 1.6 | 0.00 | 4.17 | 1.07 | 94 | 1009.8 |
| 20260505031525 | 12 | 53 | 0.0 | 3.2 | 0.00 | 4.17 | 1.07 | 94 | 1009.8 |
| 20260505030027 | 12 | 161 | 1.6 | 12.9 | 0.00 | 4.17 | 1.07 | 94 | 1009.7 |
| 20260505024522 | 12 | 88 | 3.2 | 11.3 | 0.03 | 4.17 | 1.07 | 94 | 1009.7 |
| 20260505023022 | 12 | 85 | 1.6 | 6.4 | 0.03 | 4.17 | 1.07 | 94 | 1009.9 |
| 20260505021525 | 12 | 81 | 0.0 | 6.4 | 0.05 | 4.17 | 1.07 | 94 | 1010.3 |
| 20260505020020 | 12 | 71 | 0.0 | 3.2 | 0.05 | 4.17 | 1.07 | 94 | 1010.1 |
| 20260505014520 | 12 | 71 | 0.0 | 4.8 | 0.05 | 4.14 | 1.04 | 94 | 1010.2 |
| 20260505013020 | 12 | 92 | 3.2 | 12.9 | 0.05 | 4.14 | 1.04 | 93 | 1009.9 |
| 20260505011517 | 13 | 102 | 3.2 | 9.7 | 0.05 | 4.11 | 1.02 | 93 | 1010.1 |
| 20260505010017 | 13 | 98 | 6.4 | 14.5 | 0.08 | 4.11 | 1.02 | 94 | 1010.2 |
| 20260505004516 | 12 | 92 | 3.2 | 16.1 | 0.08 | 4.09 | 0.99 | 93 | 1010.2 |
| 20260505003014 | 12 | 98 | 4.8 | 16.1 | 0.15 | 4.09 | 0.99 | 93 | 1010.3 |
| 20260505001513 | 12 | 80 | 4.8 | 16.1 | 0.15 | 4.06 | 0.97 | 93 | 1010.2 |
| 20260505000011 | 12 | 76 | 4.8 | 16.1 | 0.23 | 4.04 | 0.94 | 94 | 1010.4 |
| 20260504234508 | 12 | 111 | 6.4 | 17.7 | 0.38 | 4.01 | 0.91 | 93 | 1010.5 |
| 20260504233010 | 12 | 97 | 6.4 | 16.1 | 0.46 | 3.94 | 0.84 | 93 | 1010.5 |
| 20260504231503 | 12 | 105 | 4.8 | 17.7 | 0.61 | 3.91 | 0.81 | 93 | 1010.5 |
| 20260504230002 | 12 | 113 | 8.0 | 19.3 | 0.69 | 3.78 | 0.69 | 93 | 1010.7 |
| 20260504224602 | 12 | 57 | 6.4 | 16.1 | 0.69 | 3.66 | 0.56 | 93 | 1010.8 |
| 20260504224501 | 12 | 71 | 4.8 | 16.1 | 0.66 | 3.63 | 0.53 | 93 | 1010.8 |
| 20260504223058 | 12 | 60 | 4.8 | 16.1 | 0.53 | 3.48 | 0.38 | 92 | 1011.2 |
| 20260504221556 | 12 | 65 | 6.4 | 17.7 | 0.41 | 3.30 | 0.20 | 92 | 1011.0 |
| 20260504220111 | 12 | 70 | 4.8 | 20.9 | 0.20 | 3.10 | 0.00 | 91 | 1011.3 |
| 20260504214555 | 12 | 85 | 3.2 | 14.5 | 0.08 | 2.97 | 2.97 | 90 | 1011.8 |
| 20260504213056 | 12 | 111 | 6.4 | 19.3 | 0.05 | 2.92 | 2.92 | 90 | 1012.0 |
| 20260504211554 | 12 | 96 | 4.8 | 20.9 | 0.00 | 2.87 | 2.87 | 89 | 1011.8 |
| 20260504210047 | 12 | 109 | 6.4 | 20.9 | 0.00 | 2.87 | 2.87 | 89 | 1011.7 |
| 20260504204546 | 12 | 109 | 4.8 | 19.3 | 0.00 | 2.87 | 2.87 | 90 | 1012.0 |
| 20260504203048 | 12 | 89 | 6.4 | 19.3 | 0.00 | 2.87 | 2.87 | 90 | 1012.1 |
| 20260504201542 | 12 | 106 | 6.4 | 14.5 | 0.00 | 2.87 | 2.87 | 91 | 1012.0 |
| 20260504200048 | 12 | 101 | 8.0 | 24.1 | 0.00 | 2.87 | 2.87 | 92 | 1012.0 |
| 20260504194549 | 12 | 98 | 4.8 | 14.5 | 0.15 | 2.87 | 2.87 | 92 | 1012.2 |
| 20260504193017 | 12 | 115 | 3.2 | 12.9 | 0.41 | 2.87 | 2.87 | 91 | 1012.3 |
| 20260504191527 | 11 | 90 | 3.2 | 16.1 | 0.56 | 2.87 | 2.87 | 91 | 1012.1 |
| 20260504190013 | 11 | 124 | 3.2 | 12.9 | 0.66 | 2.87 | 2.87 | 90 | 1012.0 |
| 20260504184514 | 12 | 87 | 6.4 | 17.7 | 0.51 | 2.74 | 2.74 | 90 | 1012.1 |
| 20260504183024 | 12 | 112 | 4.8 | 16.1 | 0.25 | 2.49 | 2.49 | 89 | 1012.2 |
| 20260504181531 | 12 | 111 | 4.8 | 12.9 | 0.10 | 2.31 | 2.31 | 89 | 1012.3 |
| 20260504180030 | 13 | 109 | 1.6 | 16.1 | 0.05 | 2.24 | 2.24 | 89 | 1012.3 |
| 20260504174530 | 13 | 146 | 3.2 | 12.9 | 0.05 | 2.24 | 2.24 | 89 | 1012.3 |
| 20260504173044 | 13 | 131 | 3.2 | 16.1 | 0.05 | 2.24 | 2.24 | 90 | 1012.3 |
| 20260504171543 | 13 | 53 | 3.2 | 12.9 | 0.05 | 2.21 | 2.21 | 89 | 1012.3 |
| 20260504081506 | 12 | 61 | 6.4 | 17.7 | 0.20 | 0.66 | 0.66 | 90 | 1014.5 |